Location: ???????????
(48.7691°N, 37.7363°E)
Time: 17:34:15
(UTC+00:00)

Daily predictions for brighter satellites

Satellite Brightness Start Highest point End
(mag) Time Altitude Azimuth Time Altitude Azimuth Time Altitude Azimuth
Cosmos 1656 Rocket 4.1 18:07:45 10° NW 18:13:07 60° WSW 18:18:31 10° S
Cosmos 1553 Rocket 4.2 18:06:57 10° S 18:13:19 84° W 18:19:47 10° N
USA 234 3.9 18:07:20 10° E 18:13:42 56° NNE 18:20:05 10° NW
Lacrosse 5 rocket 2.4 18:11:39 10° NW 18:15:13 37° NNE 18:18:56 10° E
Cosmos 1238 Rocket 4.2 18:11:03 10° NNW 18:16:04 60° W 18:21:53 10° S
CZ-4B R/B 1.3 18:19:40 10° N 18:22:34 72° WNW 18:25:25 10° SSW
Meteor 2-10 Rocket 3.5 18:20:58 10° NNW 18:26:06 88° E 18:31:07 10° S
S3M 4.0 18:20:44 10° S 18:26:57 80° E 18:33:08 10° N
Cosmos 407 Rocket 3.5 18:23:49 10° NNW 18:29:04 77° ENE 18:34:12 10° SSE
GENESIS II 4.3 18:25:55 10° NW 18:30:00 85° NE 18:34:04 10° SE
BREEZE-M DEB (TANK) 4.1 18:29:14 10° WSW 18:30:28 13° SSW 18:31:56 10° S
Okean 1 Rocket 3.9 18:26:15 10° NNW 18:30:38 52° W 18:34:58 10° S
APEX 4.1 18:26:40 10° SSW 18:32:38 89° ESE 18:37:37 10° NNE
SL-16 R/B 4.4 18:27:53 10° WSW 18:32:53 31° NW 18:37:55 10° NNE
MetOp-B 4.5 18:30:09 10° S 18:35:28 68° WSW 18:40:51 10° NNW
SL-14 R/B 4.2 18:32:01 10° SSW 18:35:47 51° WNW 18:39:36 10° N
Cosmos 1455 Rocket 3.1 18:31:36 10° N 18:35:57 66° ENE 18:40:15 10° SSE
Meteor 2-5 Rocket 4.0 18:30:50 10° SSE 18:36:08 51° E 18:41:30 10° NNE
USA 245 3.8 18:31:33 10° SSE 18:36:45 86° WSW 18:40:58 10° NNW
Cosmos 2056 Rocket 4.2 18:33:15 10° SSE 18:38:08 37° ESE 18:43:04 10° NE
SPOT 5 2.8 18:33:50 10° SSE 18:38:19 66° ENE 18:42:40 10° N
Cosmos 1607 4.5 18:41:43 10° S 18:47:22 37° ESE 18:52:59 10° NE
Cosmos 1271 Rocket 3.6 18:44:11 10° N 18:47:56 38° ENE 18:51:09 13° SE
Cosmos 1025 Rocket 3.1 18:44:14 10° S 18:48:26 60° E 18:52:39 10° NNE
USA 32 4.3 18:44:09 10° SSE 18:49:12 52° E 18:54:18 10° NNE
Cosmos 1300 3.9 18:46:03 10° NNW 18:49:37 39° W 18:53:09 10° SSW
ERS-1 Rocket 3.0 18:44:38 10° SSE 18:49:40 76° ENE 18:54:43 10° NNW
Cosmos 1140 Rocket 3.8 18:47:39 10° NNW 18:52:50 66° WSW 18:57:56 10° S
Cosmos 1943 3.9 18:50:40 10° SW 18:56:15 59° WNW 19:01:52 10° NNE
Cosmos 1603 4.3 18:54:29 10° SW 19:00:08 62° WNW 19:05:51 10° NNE
CZ-2C R/B 3.8 18:58:13 10° NNE 19:02:50 61° E 19:07:21 10° S
Lacrosse 5 2.4 18:59:03 10° NW 19:04:06 57° NNE 19:09:08 10° ESE
Cosmos 1975 Rocket 3.3 19:04:27 10° SSW 19:08:54 72° W 19:13:21 10° N
Cosmos 1954 Rocket 4.1 19:04:26 10° NNW 19:09:46 77° ENE 19:14:01 16° SSE
Helios 1A Rocket 3.4 19:07:41 11° S 19:11:28 57° WSW 19:15:31 10° NNW
Resurs 01 Rocket 4.2 19:13:34 10° SW 19:16:17 16° W 19:19:02 10° NW
USA 267 3.2 19:15:02 10° ENE 19:21:35 73° SE 19:28:07 10° SW
ATLAS 5 CENTAUR R/B 4.0 19:09:49 10° NW 19:22:00 42° WSW 19:25:35 14° S
Lacrosse 4 Rocket 3.7 19:18:41 10° WSW 19:22:13 27° NW 19:25:44 10° NNE
Cosmos 2228 3.8 19:21:00 10° N 19:24:58 37° ENE 19:27:35 18° SE
Cosmos 1544 Rocket 3.7 19:22:48 10° NNW 19:27:08 72° W 19:30:31 16° S
Terra 2.1 19:24:00 14° S 19:28:01 63° WSW 19:32:46 10° NNW
Tiangong 2.4 19:25:32 10° SW 19:27:57 21° S 19:27:57 21° S
Cosmos 2315 Rocket 4.5 19:22:40 10° SSW 19:28:58 64° WNW 19:35:16 10° N
Cosmos 1980 Rocket 4.2 19:25:07 10° N 19:29:24 21° NE 19:33:39 10° E
NOSS 2-1 (C) 4.0 19:25:54 10° NW 19:30:15 77° NE 19:34:59 17° SE
Cosmos 1703 3.9 19:28:22 21° SSE 19:30:28 39° E 19:34:05 10° NNE
Meteor 1-24 Rocket 3.9 19:25:13 10° SSW 19:30:29 69° WNW 19:35:53 10° N
SL-8 R/B 3.7 19:26:45 10° W 19:31:36 86° S 19:36:27 10° E
Cosmos 1697 Rocket 3.9 19:29:16 10° NNW 19:34:24 34° NE 19:39:16 11° ESE
SAR-Lupe-1 4.3 19:31:14 10° NNE 19:34:44 49° E 19:36:39 23° SSE
FALCON 9 DEB 3.2 19:31:49 10° WSW 19:35:04 74° NNW 19:38:21 10° ENE
Cosmos 1455 2.6 19:33:32 10° NNW 19:37:16 56° W 19:39:56 18° S
Cosmos 1371 Rocket 4.3 19:33:17 10° SSW 19:38:29 71° WNW 19:43:48 10° NNE
Cosmos 1452 Rocket 4.1 19:36:47 19° SSE 19:40:02 40° ESE 19:44:56 10° NE
NOSS 2-1 (D) 4.0 19:36:13 10° NW 19:40:38 89° NE 19:45:05 19° SE
RESURS DK-1 3.6 19:40:41 10° NNW 19:44:29 34° NE 19:47:23 15° ESE
ARIANE 5 R/B 3.3 19:46:05 17° S 19:49:22 49° W 19:53:44 10° NNW
ASTEX 1 3.9 19:44:54 10° NNE 19:49:45 47° E 19:52:36 23° SSE
Cosmos 2074 Rocket 4.1 19:46:22 10° N 19:52:40 81° W 19:57:20 19° S
ATLAS 2AS CENTAUR R/B 2.8 19:45:40 10° NW 19:52:47 71° SW 19:57:27 21° SSE
Lacrosse 5 rocket 1.5 19:50:34 10° WNW 19:54:22 55° SW 19:56:17 27° SSE
Cosmos 2084 3.0 19:50:43 10° SW 19:54:32 73° SE 19:58:25 10° NE
USA 234 3.3 19:51:32 18° SE 19:56:38 70° SW 20:03:13 10° WNW
Cosmos 2344 4.5 19:49:41 10° NW 19:58:11 66° NE 20:09:55 10° SE
Cosmos 2058 Rocket 4.5 19:56:02 10° N 19:59:49 28° ENE 20:02:12 18° ESE
Cosmos 1656 3.6 19:56:34 10° NNW 20:02:03 88° WSW 20:05:29 24° SSE
Cosmos 1833 Rocket 3.3 20:02:58 23° SSE 20:05:43 38° ESE 20:10:52 10° NE
GP-B 3.6 20:01:49 10° NNE 20:06:08 47° E 20:08:14 27° SSE
Cosmos 1892 Rocket 4.4 20:08:05 25° SE 20:09:56 36° E 20:13:59 10° NNE
Cosmos 2154 Rocket 4.0 20:05:39 10° N 20:11:56 82° W 20:16:04 22° S
Nadezhda 1 Rocket 3.9 20:10:03 20° S 20:14:25 85° E 20:20:32 10° N
Cosmos 2082 Rocket 3.6 20:17:54 19° SE 20:19:48 22° E 20:24:03 10° NE
Cosmos 1741 Rocket 4.1 20:18:28 10° NNW 20:23:48 75° WSW 20:26:43 27° S
Cosmos 968 Rocket 3.8 20:40:20 10° NNW 20:45:28 59° ENE 20:48:32 24° SE
COSMOS 2406 3.6 20:42:59 28° SSE 20:45:37 47° ESE 20:51:07 10° NE
Lacrosse 5 2.4 20:42:13 10° WNW 20:47:01 41° SW 20:48:46 30° S
Cosmos 1606 Rocket 4.2 20:44:15 10° NNW 20:48:24 47° W 20:50:19 27° SSW
H-2A R/B 3.5 20:45:05 10° NNE 20:49:16 68° ESE 20:50:52 36° S
Meteor 1-11 4.2 20:48:17 28° S 20:51:18 73° E 20:56:54 10° NNE
SL-8 Rocket 4.0 20:45:01 10° N 20:51:20 81° E 20:54:53 28° SSE
Cosmos 2218 Rocket 4.1 20:48:21 10° N 20:54:47 74° E 20:58:31 27° SSE
Cosmos 2369 3.8 20:50:03 10° NNW 20:55:48 73° ENE 20:59:20 24° SE
Cosmos 2341 Rocket 4.0 20:50:11 10° N 20:56:34 80° W 21:00:11 27° S
Cosmos 1633 4.4 20:57:00 17° ESE 20:57:39 18° E 21:00:07 10° NE
SL-16 R/B 4.0 20:56:15 10° NNW 21:01:00 26° NE 21:05:45 10° ESE
SJ 16-02 3.9 20:59:28 10° NNE 21:02:06 15° NE 21:04:43 10° E
USA 267 4.0 20:58:09 10° ENE 21:04:30 55° NNW 21:10:50 10° W
Cosmos 2366 rocket 4.0 20:58:11 10° N 21:04:31 85° E 21:08:07 28° SSE
Cosmos 1408 2.6 21:09:35 43° SW 21:10:31 66° WNW 21:13:57 10° N
Cosmos 1867 4.2 21:05:24 10° NNW 21:10:49 56° NE 21:15:31 13° ESE
ALOS 2 2.8 21:09:14 35° SSW 21:10:54 59° W 21:15:16 10° NNW
Cosmos 967 Rocket 4.5 21:06:58 23° SSW 21:11:07 73° ESE 21:17:36 10° NE
Cosmos 1900 4.4 21:06:55 10° NW 21:12:06 77° SW 21:14:34 31° SSE
Cosmos 1825 2.3 21:12:17 43° SSE 21:13:12 57° E 21:16:54 10° NNE
SL-8 R/B 3.6 21:09:18 10° W 21:14:07 72° SSW 21:18:56 10° ESE
Cosmos 1980 Rocket 2.2 21:08:31 10° NNW 21:14:16 87° ENE 21:17:30 27° SSE
Cosmos 1697 Rocket 3.1 21:13:10 10° NW 21:18:33 48° WSW 21:20:59 29° SSW
RESURS DK-1 3.5 21:18:48 10° NW 21:22:23 29° WSW 21:23:13 27° SW
ADEOS Rocket 3.5 21:18:38 27° S 21:22:43 67° WSW 21:30:16 10° NNW
Cosmos 1812 Rocket 4.0 21:20:21 10° N 21:24:47 56° ENE 21:26:45 30° SE
In-Cosmos 22 Rocket 4.2 21:26:35 29° SSW 21:29:35 84° W 21:35:10 10° N
Cosmos 1892 3.4 21:31:44 31° SW 21:33:04 44° WNW 21:36:42 10° N
ERS-2 2.1 21:30:27 10° N 21:34:03 74° WNW 21:35:04 44° SSW
Cosmos 2181 Rocket 4.1 21:30:29 26° SSW 21:34:03 70° W 21:40:16 10° N
Cosmos 2084 Rocket 3.2 21:31:06 10° NW 21:35:00 87° NE 21:36:46 32° SE
Aureole 1 Rocket 4.5 21:30:19 10° NNW 21:36:48 71° ENE 21:42:59 18° SSE
Cosmos 2058 Rocket 4.2 21:33:54 10° NNW 21:37:50 33° W 21:39:28 25° SW
USA 276 1.8 21:38:55 43° W 21:39:45 81° NNW 21:42:40 10° ENE
Cosmos 1602 Rocket 3.5 21:38:17 38° S 21:39:50 70° E 21:44:09 10° NNE
USA 234 4.5 21:38:52 20° SW 21:40:26 22° SW 21:45:21 10° WNW
Cosmos 2278 3.7 21:36:22 10° NNW 21:42:09 86° ENE 21:45:39 25° SSE
ATLAS 2AS CENTAUR R/B 4.4 21:38:37 10° WNW 21:42:22 15° WSW 21:44:51 13° SW
Cosmos 2322 Rocket 3.6 21:38:06 10° NNW 21:43:19 36° NE 21:48:30 10° ESE
Cosmos 1302 Rocket 4.2 21:40:59 26° SW 21:43:57 68° WNW 21:49:09 10° NNE
Cosmos 1833 Rocket 3.7 21:44:37 11° WSW 21:49:37 42° NW 21:54:57 10° NNE
SL-19 R/B 4.3 21:50:10 37° SE 21:51:19 61° ENE 21:55:03 10° N
CRYOSAT 2 4.5 21:49:52 30° SSE 21:52:17 70° E 21:57:11 10° N
CZ-2D R/B 4.2 21:50:57 10° NE 21:54:10 16° E 21:57:23 10° SE
Geosat 3.9 21:55:47 25° SSE 21:58:46 88° WSW 22:03:50 10° NNW
Cosmos 1821 Rocket 4.0 21:56:31 10° NNW 22:02:49 74° W 22:06:18 28° S
Cosmos 2082 Rocket 2.4 21:59:43 23° SW 22:03:20 69° WNW 22:09:03 10° NNE
Cosmos 1626 Rocket 4.3 22:04:58 26° SW 22:06:52 42° WNW 22:11:00 10° N
Cosmos 1238 4.0 22:09:26 60° S 22:09:54 89° S 22:12:57 10° N
ATLAS 5 CENTAUR R/B 2.0 22:09:38 33° SSE 22:10:21 36° ESE 22:14:08 10° NE
Nadezhda 3 Rocket 4.0 22:12:40 27° SSW 22:16:11 81° W 22:22:23 10° N
Resurs 1-4 Rocket 3.6 22:11:53 10° NE 22:16:19 26° E 22:19:46 14° SE
Thor Agena Rocket 4.4 22:12:26 10° NNE 22:17:22 40° E 22:20:14 22° SSE
Cosmos 1825 Rocket 3.5 22:16:48 34° S 22:18:36 77° E 22:22:57 10° NNE
PSLV R/B 4.4 22:14:35 10° N 22:19:11 49° WNW 22:21:43 24° SW
Cosmos-2242 3.3 22:15:02 10° NNW 22:19:11 52° W 22:20:41 34° SSW
Cosmos 2360 Rocket 3.2 22:20:21 10° NNW 22:25:50 46° NE 22:31:17 10° SE
COSMOS 2406 4.5 22:25:01 11° WSW 22:30:05 36° NW 22:35:24 10° NNE
Cosmos 1633 3.7 22:30:47 25° WSW 22:31:56 31° WNW 22:35:06 10° N
Cosmos 1932 4.5 22:34:05 22° SW 22:38:19 84° NW 22:44:42 10° NE
SJ 16-02 1.3 22:36:50 10° NNW 22:41:17 83° WSW 22:43:51 25° SSE
Cosmos 1340 Rocket 2.8 22:41:29 33° S 22:43:09 76° E 22:47:06 10° NNE
SL-16 R/B 3.2 22:39:07 10° SE 22:45:11 55° ENE 22:51:17 10° N
SL-16 R/B 2.2 22:40:00 10° NNW 22:45:39 69° WSW 22:49:42 19° SSE
USA 267 4.5 22:40:47 10° ENE 22:46:53 43° N 22:52:59 10° WNW
Cosmos 972 Rocket 4.2 22:42:19 10° NNW 22:47:18 72° ENE 22:52:07 13° SSE
FALCON 9 DEB 3.7 22:45:04 10° WNW 22:48:18 57° NNE 22:51:32 10° E
Cosmos 1606 3.8 22:46:56 10° NNW 22:50:21 31° W 22:51:30 26° SW
Cosmos 1867 4.4 22:49:25 10° NW 22:54:10 31° WSW 22:56:07 24° SSW
Meteor 2-3 Rocket 4.4 22:50:30 17° SSE 22:54:35 48° E 22:59:57 10° NNE
MOS 1 Rocket 4.1 22:50:06 11° SSE 22:54:43 54° ENE 22:59:46 10° N
SL-8 R/B 4.5 22:52:03 10° W 22:56:13 29° SW 22:57:36 25° S
Cosmos 1980 Rocket 3.9 22:54:00 10° WNW 22:57:29 17° W 22:59:13 15° WSW
Cosmos 1354 Rocket 4.4 22:56:12 10° NNW 23:01:17 47° WSW 23:04:16 23° SSW
ADEOS II 3.2 23:00:48 10° NNE 23:05:39 36° E 23:10:01 12° SSE
Cosmos 1782 3.5 23:02:10 10° N 23:06:05 51° ENE 23:09:28 13° SSE
Cosmos 2219 Rocket 3.3 23:03:28 10° NNW 23:08:54 45° NE 23:14:19 10° SE
Cosmos 2058 4.0 23:08:17 21° SW 23:10:27 34° WNW 23:14:19 10° N
USA 276 2.1 23:12:13 10° WNW 23:15:08 72° N 23:18:01 10° E
Cosmos 2221 2.8 23:11:19 10° NNW 23:15:32 54° W 23:18:00 23° SSW
Cosmos 2333 Rocket 2.6 23:11:28 10° NNW 23:17:14 66° ENE 23:22:57 10° SE
Meteor 1-28 Rocket 4.1 23:17:13 10° SE 23:20:45 46° ENE 23:24:18 10° N
CZ-4 R/B 3.9 23:16:20 10° NNE 23:21:10 80° ESE 23:24:39 19° S
Helios 1A 4.1 23:21:46 10° SE 23:25:46 44° ENE 23:29:47 10° N
Cosmos 1933 3.3 23:23:18 10° NNW 23:27:19 74° W 23:30:10 18° S
Cosmos 2322 Rocket 2.5 23:22:06 10° NW 23:27:30 46° WSW 23:31:55 15° S
Cosmos 1727 Rocket 4.1 23:23:41 16° S 23:28:55 83° E 23:35:17 10° N
Cosmos 990 Rocket 4.3 23:26:23 10° NNW 23:31:32 66° ENE 23:36:38 10° SSE
AQUA 4.0 23:28:56 10° NNE 23:33:42 71° ESE 23:37:31 16° S
CZ-2D R/B 2.1 23:29:37 10° NNE 23:34:50 78° WNW 23:38:50 17° SSW
UNK 3.7 23:33:30 12° S 23:37:45 75° WSW 23:42:28 10° NNW
Cosmos 2151 3.0 23:38:32 18° SSW 23:41:40 83° W 23:45:59 10° N
SL-4 R/B 3.4 23:42:05 15° S 23:43:57 22° SE 23:47:01 10° E
Cosmos 1898 Rocket 4.1 23:40:02 10° NNW 23:45:11 59° ENE 23:50:16 10° SE
NOSS 8 (A) 4.3 23:45:44 20° SSW 23:47:58 68° SE 23:50:55 10° NE
Cosmos 2082 Rocket 4.4 23:44:42 10° W 23:48:31 18° NW 23:52:20 10° N
Cosmos 2100 Rocket 4.1 23:42:22 10° N 23:48:48 89° W 23:55:11 10° S
IDEFIX/ARIANE 42P 2.8 23:43:56 10° NNE 23:49:11 71° ESE 23:54:02 12° S
Meteor 1-26 Rocket 4.4 23:44:35 10° NNW 23:50:13 63° W 23:56:00 10° S
Cosmos 2333 4.2 23:45:36 10° NNW 23:51:22 73° WSW 23:57:07 10° SSE
ATLAS 5 CENTAUR R/B 2.8 23:51:21 10° W 23:54:52 32° NW 23:58:52 10° NNE
Cosmos 1184 Rocket 4.1 23:52:18 10° N 23:55:10 36° ENE 23:58:00 10° SE
